Location: Newark
(51.3318°N, 0.0053°E)
Time: 08:05:56
(UTC+00:00)

ONEWEB-0421 - Pass Details

Date: 05 June 2024
Orbit: 1188 x 1191 km, 87.9° (Epoch: 16 June)

Event Time Altitude Azimuth Distance (km) Brightness Sun altitude
Rises 00:54:40 0° 3° (N) 4,098 ? -15.1°
Reaches altitude 10° 00:58:23 10° 22° (NNE) 3,130 ? -14.9°
Maximum altitude 01:03:14 19° 64° (ENE) 2,530 ? -14.7°
Drops below altitude 10° 01:08:03 10° 106° (ESE) 3,118 ? -14.5°
Sets 01:11:43 0° 124° (SE) 4,077 ? -14.4°
